Weather History for Yuma MCAS, AZ

Change the Weather History Date:

Thursday, November 3, 2011

  Actual Average Record
Temperature  
Mean Temperature 66 °F 71 °F  
Max Temperature 80 °F 83 °F 98 °F (1962)
Min Temperature 52 °F 58 °F 42 °F (1919)
Degree Days  
Heating Degree Days 0 0  
Month to date heating degree days 0 0  
Since 1 July heating degree days 0 2  
Cooling Degree Days 1 6  
Month to date cooling degree days 12 19  
Year to date cooling degree days 4676 4581  
Growing Degree Days 16 (Base 50)    
Moisture  
Dew Point 16 °F    
Average Humidity 18    
Maximum Humidity 28    
Minimum Humidity 7    
Precipitation  
Precipitation 0.00 in 0.01 in 0.04 in (1910)
Month to date precipitation 0.00 0.02  
Year to date precipitation 1.42 2.85  
Sea Level Pressure  
Sea Level Pressure 29.96 in    
Wind  
Wind Speed 4 mph (NNE)    
Max Wind Speed 14 mph    
Max Gust Speed 16 mph    
Visibility 10 miles    
Events      
T = Trace of Precipitation, MM = Missing Value Source: NWS Daily Summary

Daily Weather History Graph

Daily Weather History Graph

Search for Another Location

Airport:

Trip Planner

Search our weather history database for the weather conditions in past years. The results will help you decide how hot, cold, wet, or windy it might be!

Date:

Astronomy

Nov. 03, 2011 Rise Set
Actual Time 6:57 AM MST 5:45 PM MST
Civil Twilight 6:32 AM MST 6:11 PM MST
Nautical Twilight 6:02 AM MST 6:40 PM MST
Astronomical Twilight 5:33 AM MST 7:09 PM MST
Moon 1:52 PM MST (11/3) 12:35 AM MST (11/3)
Length of Visible Light 11h 39m
Length of Day
10h 48m
First Quarter, 61% of the Moon is Illuminated
Nov 3
First Quarter
Nov 10
Full
Nov 18
Last Quarter
Nov 24
New
Dec 2
First Quarter

Hourly Weather History & Observations

Time (MST) Temp. Dew Point Humidity Pressure Visibility Wind Dir Wind Speed Gust Speed Precip Events Conditions
12:55 AM 57.9 °F 12.0 °F 16% 30.09 in 10.0 mi North 5.8 mph - N/A   Clear
1:55 AM 59.0 °F 12.0 °F 16% 30.08 in 10.0 mi North 6.9 mph - N/A   Clear
2:55 AM 57.9 °F 12.0 °F 16% 30.07 in 10.0 mi NNW 6.9 mph - N/A   Clear
3:55 AM 52.0 °F 19.9 °F 28% 30.07 in 10.0 mi Calm Calm - N/A   Clear
4:55 AM 52.0 °F 19.0 °F 27% 30.06 in 10.0 mi Calm Calm - N/A   Clear
5:55 AM 55.9 °F 14.0 °F 19% 30.06 in 10.0 mi North 4.6 mph - N/A   Clear
6:55 AM 54.0 °F 14.0 °F 21% 30.06 in 10.0 mi North 4.6 mph - N/A   Mostly Cloudy
7:55 AM 55.9 °F 16.0 °F 21% 30.07 in 10.0 mi NNE 4.6 mph - N/A   Mostly Cloudy
8:55 AM 60.1 °F 17.1 °F 19% 30.07 in 10.0 mi NE 8.1 mph - N/A   Mostly Cloudy
9:55 AM 64.9 °F 21.0 °F 19% 30.05 in 10.0 mi NNE 9.2 mph - N/A   Mostly Cloudy
10:55 AM 70.0 °F 14.0 °F 12% 30.03 in 10.0 mi NE 10.4 mph - N/A   Scattered Clouds
11:55 AM 73.0 °F 12.9 °F 10% 30.00 in 10.0 mi NNE 10.4 mph - N/A   Scattered Clouds
12:55 PM 77.0 °F 12.0 °F 8% 29.96 in 10.0 mi ENE 6.9 mph - N/A   Scattered Clouds
1:55 PM 77.0 °F 9.0 °F 7% 29.93 in 10.0 mi SSE 3.5 mph - N/A   Clear
2:55 PM 79.0 °F 9.0 °F 7% 29.90 in 10.0 mi Calm Calm - N/A   Mostly Cloudy
3:55 PM 79.0 °F 10.0 °F 7% 29.88 in 10.0 mi ESE 3.5 mph - N/A   Mostly Cloudy
4:55 PM 78.1 °F 10.0 °F 7% 29.87 in 10.0 mi SSW 4.6 mph - N/A   Clear
5:55 PM 75.0 °F 18.0 °F 12% 29.86 in 10.0 mi WSW 3.5 mph - N/A   Clear
6:55 PM 72.0 °F 25.0 °F 17% 29.86 in 10.0 mi WSW 3.5 mph - N/A   Clear
7:55 PM 68.0 °F 23.0 °F 18% 29.85 in 10.0 mi Calm Calm - N/A   Clear
8:55 PM 66.0 °F 26.1 °F 22% 29.85 in 10.0 mi Calm Calm - N/A   Clear
9:55 PM 64.0 °F 25.0 °F 23% 29.83 in 10.0 mi Calm Calm - N/A   Clear
10:55 PM 64.0 °F 19.9 °F 18% 29.82 in 10.0 mi Calm Calm - N/A   Clear
11:55 PM 62.1 °F 18.0 °F 18% 29.82 in 10.0 mi Calm Calm - N/A   Clear